HAWK-B

Last updated on Fri Dec 29 2023 00:03:29 GMT+0000 (Coordinated Universal Time)

1 43794U 18099AN 23361.75555327 .00005147 00000+0 40640-3 0 9991 2 43794 97.5361 59.5223 0008716 156.8628 203.2990 15.01092850276757
UTC large
Height (km)
Speed (km/s)
/
Latitude / Longitude
Inclination (degrees)
Orbital Period (minutes)
Azimuth
Elevation
Range (km)
Doppler Factor

Next 0 passes for location: London (51.5072 / 0.1276)

Sorry there are no passes over London.